ELECTRON KICK STAGE R/B, 100748

Orbit data source: Space-Track

ELECTRON KICK STAGE R/B, 100748 is space debris in LEO originally from a launch on Sat, 19 Sep 2026 UTC launched from the Rocket Lab Launch Complex (RLLC). Debris objects in space refer to the collection of defunct objects orbiting the Earth. Examples of debris include non-operational satellites, rocket bodies, and fragments generated from explosions, collisions, or faulty payload assembly.

Loading next visibility...
Identifier
100748, 2026-217C
Orbit
LEO
Country
Flag of USUS
Related business
Manufacturer
Rocket Lab
Mission
Spacecraft
Bus & Motor
KICK STAGE, CURIE
Mass
~42 kg wet, ~42 kg dry
Launch date (UTC)
2026-09-19 (2 days ago)
Launch vehicle
Unknown
Launch site
Rocket Lab Launch Complex (RLLC)
Object type
Payload
Rocket body
Debris
Shape & HBR
TRUNC CONE, 0.6 m
Radar Cross Section
RCS unknown

Expand to show TLE details & history
Last TLE update: 17 hours ago

TLE from 17 hours ago
0 ELECTRON KICK STAGE R/B
1 A0748U 26217C   26264.22951903  .00092060  58490-5  83151-3 0  9997
2 A0748  38.1724 305.6445 0209449 309.7078  48.5402 15.44305188   333
Epoch: 2026-09-21T05:30Z
TLE epoch observation values (Epoch: 2026-09-21T05:30:30.444Z)
Latitude
0.00001°
Longitude
-137.09469°
Altitude
339.932 km
Speed
7.759 km/s
True Right ascension
20h 22m 34s
True Declination
0° 00' 00"
Sunlit
Object was in full shadow at epoch
Visualization orbit readout
Latitude
Unknown
Longitude
Unknown
Altitude
Unknown
Speed
Unknown
Apparent Right ascension
Unknown
Apparent Declination
Unknown
Sunlit
N/A
Visualization observer readout
Local Sidereal Time
15:35:38
Azimuth
Unknown
Elevation
Unknown
Doppler factor
Unknown
Orbital elements
Apogee altitude
578.914 km
Perigee altitude
293.463 km
Semi-major axis
6,814.325 km
Eccentricity
0.02094
Inclination
38.1724°
RAAN
305.6445°
Arg. of periapsis
309.7078°
True anomaly
50.37028°
Mean anomaly
48.5402°
Eccentric anomaly
49.45208°
Mean motion
3.85841 °/min
Orbital period
93.3 mins
BSTAR
0.00083151
Loading maneuver chart data...
Computing Atmospheric mass density...
Loading historical data...
Loading historical data...
Loading historical data...
Loading historical data...
Loading historical data...
Loading historical data...
Loading historical data...
Other satellites on launch #217 in the year 2026 (2026-09-19 UTC)

Documentation

Showing up to 5 results
|